CZ-6A DEB, 61099

Orbit data source: Space-Track

CZ-6A DEB, 61099 is space debris in LEO originally from a launch on Tue, 06 Aug 2024 UTC launched from the Taiyaun Space Center, China (TSC). Debris objects in space refer to the collection of defunct objects orbiting the Earth. Examples of debris include non-operational satellites, rocket bodies, and fragments generated from explosions, collisions, or faulty payload assembly.

Loading next visibility...
Identifier
61099, 2024-140NR
Orbit
LEO
Country
Flag of CNCN / PRC
Related business
Manufacturer
SAST
Mission
Spacecraft
Bus & Motor
Unknown
Mass
Unknown
Launch date (UTC)
2024-08-06 (2 years ago)
Launch vehicle
Unknown
Launch site
Taiyaun Space Center, China (TSC)
Object type
Payload
Rocket body
Debris
Shape & HBR
Unknown shape, 0.1 m
Radar Cross Section
Medium (>0.1 m² and <1 m²)

Expand to show TLE details & history
Last TLE update: 14 hours ago

TLE from 14 hours ago
0 CZ-6A DEB
1 61099U 24140NR  26171.27815903  .00002322  00000-0  91296-3 0  9997
2 61099  89.0081 274.2678 0034597 132.3449 228.0685 14.28652079 94203
Epoch: 2026-06-20T06:40Z
TLE epoch observation values (Epoch: 2026-06-20T06:40:32.940Z)
Latitude
-0.00005°
Longitude
-94.36453°
Altitude
815.943 km
Speed
7.437 km/s
True Right ascension
18h 17m 04s
True Declination
0° 00' 00"
Sunlit
Object was in full shadow at epoch
Visualization orbit readout
Latitude
Unknown
Longitude
Unknown
Altitude
Unknown
Speed
Unknown
Apparent Right ascension
Unknown
Apparent Declination
Unknown
Sunlit
N/A
Visualization observer readout
Local Sidereal Time
07:23:45
Azimuth
Unknown
Elevation
Unknown
Doppler factor
Unknown
Orbital elements
Apogee altitude
817.989 km
Perigee altitude
768.368 km
Semi-major axis
7,171.316 km
Eccentricity
0.00346
Inclination
89.0081°
RAAN
274.2678°
Arg. of periapsis
132.3449°
True anomaly
227.77441°
Mean anomaly
228.0685°
Eccentric anomaly
227.92137°
Mean motion
3.57392 °/min
Orbital period
100.73 mins
BSTAR
0.00091296
Loading maneuver chart data...
Computing Atmospheric mass density...
Loading historical data...
Loading historical data...
Loading historical data...
Loading historical data...
Loading historical data...
Loading historical data...
Loading historical data...

Documentation

Showing up to 5 results
|